Wind_Speed
39 40 40 41 42 43 44 45 45 45 45 44 44 44 44 45 46 46 46 46 47 48 49 48 48 46 45 44 43 42 41 41 40 40 39 38 36 35 34 33 32 31 30
39 39 40 41 42 43 44 45 45 45 45 45 45 46 46 46 46 47 46 47 48 49 50 50 49 49 48 48 47 45 44 43 42 42 40 40 39 39 37 35 34 34 33
37 40 40 41 42 42 43 44 45 45 45 46 46 46 47 47 47 48 49 48 49 49 50 51 51 50 50 50 49 48 47 46 45 44 43 43 42 41 40 38 36 35 34
36 39 40 40 41 42 43 44 45 45 45 45 45 46 47 47 48 48 49 49 49 50 51 52 52 51 51 51 50 50 49 48 47 46 45 44 43 42 41 40 39 38 37
36 38 39 40 41 42 43 44 45 45 45 46 45 45 46 47 48 48 48 48 49 50 51 52 52 52 52 52 51 51 50 50 48 47 47 46 44 43 43 42 41 41 39
37 38 39 40 40 41 43 44 45 45 46 47 46 47 47 48 49 49 49 48 49 51 51 52 53 52 53 53 52 52 51 51 51 49 48 47 47 46 45 44 43 42 41
37 38 38 39 40 41 42 45 46 47 47 47 48 47 48 48 49 49 49 49 48 49 49 51 52 52 52 53 53 53 52 52 52 52 50 49 49 48 47 46 45 44 43
36 37 38 39 40 41 42 44 46 47 47 48 48 48 47 48 49 49 50 50 50 50 50 51 51 51 52 53 53 53 53 53 53 53 52 51 51 50 49 48 47 46 45
36 37 38 39 40 41 42 44 45 46 46 46 47 48 48 48 48 49 50 50 51 51 50 51 53 53 53 54 54 54 55 54 55 55 54 53 52 52 51 49 48 48 46
36 37 38 39 40 41 43 44 44 44 46 47 48 48 49 49 49 50 51 51 52 52 52 53 54 55 55 55 55 54 55 56 56 56 56 55 54 53 52 51 49 49 48
37 37 38 39 41 41 42 43 43 44 45 47 48 49 49 49 49 50 51 52 53 53 53 54 55 55 56 56 55 55 55 56 56 57 57 56 55 55 54 52 51 50 49
37 37 37 38 40 41 41 41 42 44 45 46 48 49 49 49 49 50 50 52 53 53 53 54 55 55 56 56 56 55 56 56 56 56 57 57 56 55 56 54 53 52 51
36 37 38 38 39 40 41 41 42 42 43 45 47 48 49 49 49 50 51 52 53 53 52 52 53 54 55 56 57 56 55 56 56 56 57 57 56 56 55 54 54 53 52
36 37 37 38 38 39 40 40 41 42 42 43 45 47 48 48 49 50 51 51 51 52 53 52 52 54 55 56 56 56 56 56 55 56 57 58 58 57 56 55 55 54 53
36 36 37 38 38 39 39 40 41 40 41 42 44 46 48 49 49 48 49 50 50 51 53 53 54 54 54 55 55 56 57 57 57 57 57 57 58 57 58 57 55 55 54
36 36 37 37 37 38 39 40 41 40 41 42 43 44 46 47 47 47 49 49 49 49 50 51 51 52 53 54 55 55 55 56 57 58 58 58 59 58 58 57 56 55 55
35 35 35 36 36 37 39 40 40 41 41 41 42 42 42 44 45 46 47 47 48 47 48 48 46 47 50 51 53 55 55 55 56 56 57 57 58 58 57 55 55 55 55
35 34 34 35 36 37 38 39 40 41 41 40 40 40 41 43 43 44 45 46 47 47 48 49 48 48 48 50 52 53 55 56 57 57 57 57 58 58 57 56 55 55 56
34 34 34 33 34 35 37 38 38 39 38 38 38 39 40 41 43 43 44 44 46 47 48 48 48 48 49 50 50 52 54 54 55 55 56 57 57 56 57 58 57 56 57
32 32 32 32 33 34 35 36 36 36 36 36 37 37 39 40 41 41 41 42 44 46 47 48 48 47 48 49 50 51 52 53 53 54 55 56 56 57 57 58 58 58 58
31 32 32 32 32 33 33 33 33 34 35 35 34 35 35 37 39 40 40 41 43 44 45 46 46 46 47 48 49 50 51 52 54 54 53 54 53 54 55 57 57 57 58
31 31 31 31 31 31 31 32 32 33 33 34 34 34 35 36 37 38 39 41 42 42 43 44 44 45 45 46 47 48 49 50 51 52 53 53 53 53 54 55 56 57 57
30 30 29 30 30 30 30 31 31 31 32 32 32 33 33 35 37 38 39 39 40 42 43 43 44 45 46 46 47 48 49 49 50 50 51 52 53 53 53 54 55 56 57
30 29 28 29 29 29 29 30 30 31 31 31 32 33 33 34 36 38 39 39 40 41 42 42 43 45 46 46 47 47 48 49 50 50 51 51 52 53 52 53 54 54 55
28 28 29 29 28 28 28 29 29 29 30 30 31 31 32 33 35 36 37 38 38 39 41 42 43 44 45 45 47 47 48 49 49 50 50 50 51 52 52 53 54 55 55
28 28 28 29 28 27 27 27 27 27 27 29 29 29 30 31 33 34 35 37 37 38 39 40 41 43 43 44 45 47 47 48 49 49 49 49 49 50 51 51 52 53 54
Wind_Direction
258 258 257 255 255 254 254 254 254 253 253 252 252 251 250 249 248 246 244 243 242 241 241 240 240 240 240 241 241 242 241 242 243 244 245 246 247 246 247 247 248 248 247
260 257 257 256 255 254 254 254 253 252 252 251 251 251 250 249 248 246 244 244 242 242 241 241 240 240 240 241 242 243 242 242 243 244 245 245 246 246 246 246 247 247 246
261 258 258 258 256 255 254 254 253 252 252 250 250 250 249 248 248 246 244 244 243 242 241 241 241 241 241 241 242 243 243 243 243 244 244 245 245 246 247 245 245 245 246
263 261 260 259 257 255 254 253 253 252 251 250 251 250 249 248 248 246 245 244 243 242 241 241 241 241 241 242 243 243 243 243 244 244 243 245 246 246 247 246 245 245 246
265 263 262 261 258 256 255 254 253 252 251 249 249 249 249 248 248 247 245 243 242 242 242 242 242 242 242 242 243 244 244 243 243 243 243 243 244 245 246 246 246 245 246
266 266 265 262 260 258 257 255 254 252 250 249 250 249 250 249 248 246 245 243 242 242 242 242 242 243 243 243 243 244 245 244 242 242 242 243 244 244 245 246 246 246 246
268 267 266 263 261 260 259 256 253 251 250 250 251 250 250 249 248 246 245 244 243 243 242 243 243 244 244 243 243 244 244 243 242 242 242 242 243 244 244 245 246 246 246
270 268 266 264 263 261 260 258 254 251 250 251 251 250 251 250 248 247 246 245 246 245 244 244 245 244 244 244 244 243 243 242 241 241 241 242 242 243 243 244 245 246 246
271 269 268 266 265 263 262 259 255 253 253 253 252 251 250 251 249 247 247 246 246 245 245 246 246 246 244 244 244 244 242 241 241 240 240 241 242 242 242 243 244 245 245
272 271 270 269 267 264 262 260 256 256 256 254 253 251 251 251 250 247 247 247 247 245 245 245 246 247 246 245 244 244 243 242 241 240 240 241 242 241 242 243 244 244 245
275 273 272 270 268 266 264 262 259 258 257 254 253 252 252 252 251 249 248 247 248 247 246 245 246 246 247 246 246 245 244 242 242 240 239 240 241 242 242 242 243 244 244
279 276 274 272 271 267 264 263 261 260 258 254 253 253 253 253 252 249 249 247 248 247 248 247 246 246 247 246 246 246 244 243 242 241 240 240 241 242 242 242 243 243 244
282 279 276 274 272 269 266 265 263 262 260 257 256 255 254 253 252 250 249 248 248 248 248 247 247 246 246 246 246 245 244 243 242 241 241 240 240 242 242 242 243 244 244
283 281 279 276 273 270 268 267 264 264 262 260 258 256 255 253 253 252 251 250 249 249 248 248 248 247 246 245 244 244 242 241 241 241 241 240 241 242 243 244 244 244 244
285 281 279 277 274 272 271 269 266 266 263 262 260 258 255 253 253 252 252 252 251 251 250 249 250 248 247 245 244 243 241 241 240 240 240 240 241 242 244 244 243 244 244
287 284 281 277 275 273 272 271 269 267 265 265 263 260 257 253 252 251 250 250 249 250 250 250 250 249 247 245 243 242 241 240 240 240 239 241 242 243 243 242 243 244 245
288 285 283 279 276 274 272 271 269 270 269 267 263 259 256 253 253 252 251 250 249 250 248 248 249 247 245 244 244 243 241 240 240 240 240 240 242 242 243 242 244 244 245
290 288 286 281 277 275 274 273 271 270 270 268 264 260 256 254 252 252 252 251 249 249 247 247 248 246 243 243 243 242 241 240 239 239 239 240 241 242 242 243 243 244 245
291 289 287 284 281 278 275 275 273 270 269 267 264 260 257 255 253 253 252 251 250 250 249 248 248 246 244 243 244 243 242 241 241 241 241 241 241 242 243 243 243 244 245
293 290 288 286 284 282 280 277 274 270 268 267 265 262 258 255 253 252 251 251 250 250 250 248 247 247 246 245 245 243 241 241 241 241 242 243 244 243 244 244 244 244 244
295 292 290 289 287 284 282 280 276 272 270 270 266 263 260 256 254 254 253 252 250 250 249 248 247 247 246 245 245 243 243 242 241 241 242 243 244 244 245 245 245 245 245
297 295 293 291 289 286 283 281 278 274 272 269 266 263 261 258 255 255 254 252 251 249 247 247 248 247 247 246 245 244 243 243 242 243 243 243 244 245 246 246 245 245 246
297 296 295 294 292 288 285 283 280 276 273 270 267 264 263 260 257 254 254 253 252 250 248 248 249 248 247 247 246 245 243 243 244 244 244 244 244 245 245 246 246 247 246
297 296 296 296 294 290 288 285 281 277 274 272 268 267 265 261 258 255 254 254 253 250 248 248 248 247 246 246 245 244 243 243 245 246 245 246 246 246 246 246 246 246 246
298 297 297 296 295 292 289 286 283 279 275 273 269 268 266 264 260 257 256 254 252 252 250 249 248 247 246 244 244 244 244 243 244 244 245 247 247 246 246 246 246 246 246
299 298 298 299 295 291 289 286 283 280 279 276 271 270 268 264 261 259 257 255 254 252 251 251 249 247 246 245 243 243 243 243 244 245 246 247 247 247 247 248 247 247 246
Height
5695 5696 5697 5698 5699 5700 5702 5703 5705 5707 5708 5711 5713 5715 5717 5719 5721 5724 5728 5731 5734 5739 5743 5748 5752 5757 5761 5766 5769 5772 5775 5779 5782 5786 5789 5792 5794 5797 5800 5802 5804 5806 5807
5683 5684 5684 5685 5686 5687 5688 5690 5691 5693 5696 5698 5700 5702 5704 5706 5709 5712 5715 5719 5722 5727 5731 5735 5740 5745 5750 5754 5758 5762 5765 5769 5772 5776 5779 5782 5786 5788 5791 5793 5795 5798 5800
5671 5672 5672 5673 5673 5674 5675 5677 5678 5680 5682 5685 5687 5689 5691 5694 5696 5699 5703 5706 5710 5714 5719 5723 5728 5733 5737 5742 5746 5750 5754 5758 5761 5765 5769 5772 5775 5778 5782 5784 5787 5789 5792
5660 5660 5660 5661 5661 5662 5663 5664 5665 5667 5669 5671 5673 5676 5679 5682 5684 5687 5690 5694 5697 5702 5706 5711 5715 5720 5725 5730 5734 5738 5742 5746 5750 5753 5757 5761 5764 5768 5772 5775 5778 5780 5783
5649 5649 5649 5649 5649 5650 5651 5652 5653 5655 5656 5658 5660 5664 5667 5669 5672 5675 5677 5681 5685 5689 5693 5698 5703 5708 5712 5717 5721 5725 5730 5734 5738 5742 5746 5749 5753 5756 5760 5764 5768 5771 5773
5639 5638 5638 5637 5638 5638 5639 5639 5640 5642 5644 5646 5648 5651 5654 5657 5659 5662 5665 5668 5672 5676 5680 5685 5690 5695 5699 5704 5708 5712 5717 5721 5726 5730 5734 5738 5742 5746 5749 5753 5756 5760 5763
5629 5628 5627 5626 5627 5627 5627 5627 5628 5630 5632 5634 5636 5639 5641 5644 5646 5649 5653 5656 5660 5664 5669 5673 5677 5682 5686 5691 5695 5699 5704 5708 5713 5717 5722 5726 5730 5734 5738 5741 5745 5748 5752
5618 5617 5616 5615 5615 5615 5615 5615 5616 5618 5620 5622 5624 5626 5628 5630 5633 5637 5640 5644 5648 5652 5656 5660 5664 5668 5673 5677 5681 5686 5690 5695 5699 5704 5709 5713 5718 5722 5726 5729 5733 5737 5741
5607 5606 5605 5604 5603 5603 5603 5603 5604 5606 5608 5609 5611 5613 5616 5618 5620 5624 5627 5632 5636 5639 5643 5647 5651 5655 5659 5663 5668 5672 5676 5681 5686 5691 5696 5700 5705 5709 5713 5717 5721 5725 5729
5596 5595 5594 5593 5592 5591 5591 5591 5592 5593 5594 5596 5598 5600 5603 5605 5608 5611 5615 5619 5622 5625 5629 5634 5637 5641 5645 5649 5653 5658 5663 5667 5672 5677 5682 5687 5691 5696 5701 5705 5709 5713 5718
5586 5585 5583 5582 5581 5579 5579 5579 5580 5581 5582 5583 5585 5587 5589 5591 5594 5597 5601 5604 5608 5611 5615 5619 5623 5627 5631 5635 5639 5644 5648 5653 5658 5663 5668 5674 5678 5683 5688 5693 5697 5701 5706
5575 5574 5572 5571 5569 5568 5568 5567 5568 5569 5569 5571 5572 5573 5575 5577 5580 5583 5586 5590 5594 5597 5601 5604 5608 5612 5616 5620 5625 5629 5634 5639 5644 5649 5655 5660 5665 5670 5675 5680 5685 5689 5694
5564 5563 5561 5559 5558 5557 5556 5556 5556 5556 5557 5557 5559 5560 5562 5563 5566 5569 5572 5576 5579 5583 5586 5590 5594 5598 5602 5606 5610 5615 5620 5625 5630 5635 5641 5646 5651 5657 5662 5667 5672 5677 5681
5554 5552 5550 5549 5547 5546 5545 5544 5544 5544 5544 5544 5545 5546 5548 5550 5553 5555 5558 5561 5565 5569 5572 5576 5579 5583 5588 5592 5596 5600 5606 5611 5616 5621 5626 5632 5637 5643 5648 5653 5658 5663 5668
5544 5542 5540 5538 5536 5535 5533 5532 5532 5531 5531 5531 5531 5533 5534 5537 5539 5542 5545 5548 5550 5554 5558 5561 5565 5568 5573 5577 5581 5586 5591 5597 5602 5607 5613 5618 5624 5629 5634 5639 5645 5649 5654
5534 5531 5529 5527 5525 5523 5522 5521 5520 5519 5518 5518 5518 5519 5520 5523 5526 5528 5531 5534 5537 5540 5544 5547 5550 5554 5558 5563 5567 5572 5577 5582 5588 5593 5599 5604 5610 5615 5620 5625 5630 5635 5640
5524 5521 5518 5516 5514 5513 5511 5509 5508 5507 5506 5505 5505 5506 5507 5510 5512 5515 5518 5521 5524 5527 5530 5533 5537 5540 5545 5549 5553 5558 5562 5568 5573 5579 5585 5590 5596 5601 5606 5611 5616 5621 5626
5514 5511 5508 5506 5504 5502 5500 5498 5497 5495 5495 5494 5493 5494 5495 5497 5500 5503 5505 5508 5511 5514 5517 5520 5523 5527 5531 5535 5540 5543 5549 5554 5559 5565 5570 5576 5582 5586 5591 5596 5601 5606 5612
5504 5501 5498 5496 5494 5492 5489 5487 5486 5485 5484 5484 5483 5484 5485 5486 5489 5491 5493 5496 5499 5501 5504 5507 5510 5514 5518 5522 5526 5530 5535 5540 5545 5550 5556 5561 5566 5572 5576 5581 5587 5592 5597
5495 5492 5489 5486 5484 5482 5479 5477 5476 5475 5474 5474 5474 5474 5474 5476 5478 5480 5482 5484 5486 5489 5491 5495 5497 5501 5505 5509 5513 5516 5521 5527 5532 5536 5541 5547 5552 5556 5561 5565 5571 5576 5582
5486 5483 5480 5477 5474 5472 5469 5468 5466 5465 5465 5464 5464 5464 5464 5465 5467 5469 5470 5472 5475 5477 5480 5483 5486 5489 5492 5495 5499 5503 5507 5512 5518 5523 5528 5533 5537 5542 5546 5550 5555 5561 5566
5477 5474 5471 5468 5465 5462 5460 5459 5457 5456 5455 5455 5454 5455 5455 5455 5456 5458 5459 5461 5463 5465 5468 5471 5473 5476 5479 5483 5486 5490 5495 5499 5505 5510 5515 5519 5524 5528 5532 5536 5541 5545 5549
5469 5465 5462 5459 5456 5453 5451 5450 5448 5446 5446 5445 5445 5445 5445 5445 5446 5447 5448 5450 5452 5454 5457 5459 5462 5465 5468 5471 5474 5478 5482 5487 5491 5496 5501 5505 5509 5514 5518 5522 5526 5530 5534
5460 5457 5454 5451 5448 5445 5442 5440 5438 5437 5436 5435 5435 5434 5435 5435 5436 5437 5437 5439 5441 5442 5445 5447 5450 5452 5455 5458 5462 5465 5470 5474 5478 5483 5487 5491 5495 5500 5504 5508 5511 5515 5519
5452 5449 5446 5443 5439 5436 5433 5431 5429 5428 5427 5425 5425 5424 5424 5424 5425 5426 5427 5428 5429 5431 5433 5435 5438 5441 5444 5446 5450 5453 5458 5461 5466 5470 5474 5478 5482 5486 5490 5493 5497 5501 5505
5444 5440 5437 5434 5431 5428 5425 5422 5420 5419 5417 5416 5415 5415 5414 5414 5414 5415 5416 5416 5418 5419 5421 5423 5425 5428 5431 5434 5437 5441 5444 5448 5452 5457 5461 5465 5469 5472 5476 5479 5483 5487 5491